Location: Central Falls
(41.8900°N, 71.3929°W)
Time: 12:36:46
(UTC+00:00)

A-11 Canister half - Pass Details

Date: 13 December 2023
Orbit: 1512 x 1687 km, 47.2° (Epoch: 20 February)

Event Time Altitude Azimuth Distance (km) Brightness Sun altitude
Rises 02:41:59 0° 232° (SW) 4,664 11.7 -59.2°
Enters shadow 02:42:28 - 232° (SW) 4,504 11.6 -59.3°
Reaches altitude 10° 02:44:59 10° 231° (SW) 3,698 - -59.7°
Maximum altitude 02:54:18 75° 148° (SSE) 1,618 - -61.2°
Drops below altitude 10° 03:03:59 10° 65° (ENE) 3,839 - -62.7°
Sets 03:07:10 0° 64° (ENE) 4,850 - -63.1°
